Location: Minneapolis
(44.9800°N, 93.2640°W)
Time: 02:40:07
(UTC-06:00)

OTV 5 (USA 277) - Visible Passes

Search period start: 23 February 2018 00:00
Search period end: 05 March 2018 00:00
Orbit: 404 x 417 km, 43.0° (Epoch: 07 September)

Date Brightness Start Highest point End Pass type
(mag) Time Alt. Az. Time Alt. Az. Time Alt. Az.
23 Feb ? 05:03:20 23° SSE 05:03:29 23° SSE 05:06:08 10° E visible
24 Feb ? 04:14:44 10° ESE 04:14:44 10° ESE 04:14:46 10° ESE visible
24 Feb ? 05:47:30 20° SW 05:49:26 47° SSE 05:52:37 10° E visible
25 Feb ? 04:58:49 36° SE 04:58:49 36° SE 05:01:32 10° E visible
26 Feb ? 04:10:07 12° E 04:10:07 12° E 04:10:24 10° E visible
26 Feb ? 05:42:52 26° WSW 05:44:31 60° S 05:47:46 10° E visible
27 Feb ? 04:54:08 45° SE 04:54:08 45° SE 04:56:43 10° E visible
28 Feb ? 04:05:23 12° E 04:05:23 12° E 04:05:40 10° E visible
28 Feb ? 05:38:08 28° WSW 05:39:37 59° S 05:42:52 10° ESE visible
01 Mar ? 04:49:23 44° ESE 04:49:23 44° ESE 04:51:51 10° E visible
02 Mar ? 04:00:41 11° E 04:00:41 11° E 04:00:49 10° E visible
02 Mar ? 05:33:26 28° WSW 05:34:42 44° SSW 05:37:51 10° ESE visible
03 Mar ? 04:44:45 34° SE 04:44:45 34° SE 04:46:55 10° ESE visible
04 Mar ? 05:28:55 24° SW 05:29:42 27° SSW 05:32:32 10° SE visible
